AST,Max TemperatureF,Mean TemperatureF,Min TemperatureF,Max Dew PointF,MeanDew PointF,Min DewpointF,Max Humidity, Mean Humidity, Min Humidity, Max Sea Level PressureIn, Mean Sea Level PressureIn, Min Sea Level PressureIn, Max VisibilityMiles, Mean VisibilityMiles, Min VisibilityMiles, Max Wind SpeedMPH, Mean Wind SpeedMPH, Max Gust SpeedMPH,PrecipitationIn, CloudCover, Events, WindDirDegrees
2012-10-1,88,82,75,77,75,72,89,75,65,30.02,29.98,29.95,16,6,3,16,9,21,0.20,4,Rain,99
2012-10-2,87,82,78,75,74,72,84,72,59,30.04,30.00,29.95,6,6,2,17,12,25,0.12,3,Rain,94
2012-10-3,88,84,80,74,73,72,74,67,54,30.04,30.00,29.95,19,8,6,20,14,,0.04,2,Rain,79
2012-10-4,89,84,80,75,74,72,84,70,55,30.01,29.94,29.89,19,7,6,15,11,,0.00,3,Rain,77
2012-10-5,88,84,79,73,71,69,79,66,46,29.89,29.84,29.80,6,6,6,9,7,,0.00,1,,56
2012-10-6,88,83,78,73,71,70,78,67,53,29.88,29.83,29.77,6,6,6,5,2,,0.00,1,,160
2012-10-7,87,84,80,75,74,71,79,69,57,29.99,29.92,29.83,19,7,6,10,5,,0.00,2,,135
2012-10-8,89,84,80,76,75,73,84,72,52,30.04,29.98,29.92,19,6,1,13,8,,0.20,2,Rain,109
2012-10-9,89,84,78,77,75,72,84,72,57,30.01,29.97,29.92,19,7,6,13,7,,0.08,3,Rain,100
2012-10-10,88,83,78,75,74,70,89,73,58,29.98,29.92,29.86,12,6,2,15,9,,0.08,3,Rain-Thunderstorm,91
2012-10-11,87,82,78,75,75,73,83,72,55,29.95,29.91,29.86,16,7,6,16,11,25,0.12,3,Rain,98
2012-10-12,86,82,78,75,74,72,89,74,61,29.92,29.86,29.80,12,6,5,20,15,31,0.31,3,Rain-Thunderstorm,101
2012-10-13,82,78,75,79,76,73,100,90,81,29.83,29.74,29.65,12,5,1,31,14,45,1.93,6,Rain,131
2012-10-14,84,80,77,78,77,76,94,86,79,29.77,29.72,29.65,16,5,1,31,18,40,0.39,6,Rain,212
2012-10-15,84,81,78,79,77,75,94,84,74,29.81,29.76,29.71,16,7,2,29,23,34,0.16,3,Rain,210
2012-10-16,86,82,79,77,77,75,89,80,68,29.89,29.83,29.77,19,8,6,23,16,,0.16,2,Rain,193
2012-10-17,86,83,80,78,76,75,89,79,69,29.95,29.90,29.86,19,8,6,12,7,,0.04,2,Rain-Thunderstorm,155
2012-10-18,86,80,75,77,75,73,94,79,65,29.95,29.91,29.86,19,8,2,15,7,,0.39,3,Rain,133
2012-10-19,86,80,74,76,74,71,94,76,59,29.95,29.90,29.86,9,6,4,16,10,,1.14,3,Rain,122
2012-10-20,86,82,77,74,73,72,83,71,55,29.95,29.90,29.86,6,6,6,14,9,,0.08,2,Rain,113
2012-10-21,86,82,78,75,74,73,84,75,60,29.92,29.87,29.83,19,7,6,77,9,,0.08,3,Rain,119
2012-10-22,86,82,78,75,74,72,89,73,62,30.09,29.85,29.80,19,7,6,9,6,,0.00,2,,110
2012-10-23,86,82,77,79,72,69,78,69,49,29.91,29.84,29.80,19,7,6,12,6,,0.00,1,,92
2012-10-24,85,82,78,75,72,70,78,68,56,29.92,29.87,29.83,19,7,6,12,7,,0.00,1,,121
2012-10-25,85,83,81,75,73,72,79,72,60,29.92,29.88,29.83,19,7,6,18,10,,0.00,1,,129
2012-10-26,86,82,78,78,76,73,89,78,71,29.89,29.86,29.80,9,6,6,17,9,,0.08,3,Rain,135
2012-10-27,88,83,78,79,77,75,84,78,68,29.87,29.84,29.80,9,6,6,14,8,,0.00,2,Rain,181
2012-10-28,86,84,82,79,77,76,84,77,67,29.87,29.83,29.80,6,6,6,16,12,,0.00,2,,228
2012-10-29,87,84,82,79,77,76,84,77,69,29.94,29.88,29.83,19,7,6,13,10,,0.00,2,,226
2012-10-30,86,84,81,77,76,75,84,76,64,30.00,29.95,29.89,19,7,6,9,6,,0.00,2,,128
2012-10-31,89,84,80,75,75,73,84,72,55,30.01,29.95,29.89,6,6,6,10,6,,0.00,2,,71